When you browse on this site, cookies collect data to enhance your experience and personalize the content and advertising you see.
Visit our Privacy Policy to learn more. By continuing to use the site, you agree to this use of cookies and data.
  • In Denmark
  • List of Countries
  • For 7 days
  • Water Temperature
  • Weather Map
  • Weather Widgets
  • user-avatar
    Login

    Hourly Weather Aylesbury

    Today, 23 September, Monday

    Time Temperature Precipitation Wind Pressure Humidity
    00:00 +12°C° 0 mm 3 mps 747 mmHg 95%
    01:00 +12°C° 0 mm 3 mps 747 mmHg 95%
    02:00 +12°C° 0 mm 4 mps 747 mmHg 96%
    03:00 +12°C° 0 mm 4 mps 747 mmHg 96%
    04:00 +12°C° 0 mm 4 mps 748 mmHg 95%
    05:00 +12°C° 0 mm 4 mps 748 mmHg 94%
    06:00 +12°C° 0 mm 3 mps 749 mmHg 94%
    07:00 +13°C° 0 mm 4 mps 749 mmHg 88%
    08:00 +14°C° 0 mm 4 mps 750 mmHg 81%
    09:00 +15°C° 0 mm 4 mps 750 mmHg 75%
    10:00 +16°C° 0 mm 5 mps 750 mmHg 71%
    11:00 +17°C° 0 mm 6 mps 750 mmHg 67%
    12:00 +19°C° 0 mm 5 mps 750 mmHg 59%
    13:00 +19°C° 0.1 mm 6 mps 749 mmHg 63%
    14:00 +19°C° 0.1 mm 6 mps 749 mmHg 67%
    15:00 +17°C° 0.1 mm 7 mps 749 mmHg 70%
    16:00 +16°C° 1.1 mm 7 mps 748 mmHg 77%
    17:00 +15°C° 1.1 mm 7 mps 748 mmHg 84%
    18:00 +14°C° 1.1 mm 6 mps 748 mmHg 92%
    19:00 +15°C° 0.1 mm 6 mps 748 mmHg 92%
    20:00 +15°C° 0.1 mm 6 mps 748 mmHg 92%
    21:00 +15°C° 0.1 mm 6 mps 747 mmHg 93%
    22:00 +16°C° 0.3 mm 5 mps 747 mmHg 93%
    23:00 +16°C° 0.3 mm 5 mps 747 mmHg 93%

    Tomorrow, 24 September, Tuesday

    Time Temperature Precipitation Wind Pressure Humidity
    00:00 +17°C° 0.3 mm 4 mps 747 mmHg 94%
    01:00 +17°C° 0.2 mm 4 mps 746 mmHg 94%
    02:00 +17°C° 0.2 mm 4 mps 745 mmHg 94%
    03:00 +17°C° 0.2 mm 4 mps 745 mmHg 95%
    04:00 +16°C° 1.9 mm 5 mps 744 mmHg 95%
    05:00 +16°C° 1.9 mm 5 mps 744 mmHg 94%
    06:00 +16°C° 1.9 mm 5 mps 743 mmHg 94%
    07:00 +16°C° 4.7 mm 5 mps 743 mmHg 94%
    08:00 +15°C° 4.7 mm 4 mps 742 mmHg 95%
    09:00 +16°C° 4.7 mm 3 mps 742 mmHg 95%
    10:00 +17°C° 1.9 mm 4 mps 742 mmHg 90%
    11:00 +17°C° 1.9 mm 5 mps 741 mmHg 85%
    12:00 +19°C° 1.9 mm 6 mps 741 mmHg 79%
    13:00 +19°C° 0.4 mm 6 mps 741 mmHg 77%
    14:00 +18°C° 0.4 mm 7 mps 742 mmHg 74%
    15:00 +18°C° 0.4 mm 7 mps 742 mmHg 72%
    16:00 +17°C° 0 mm 6 mps 742 mmHg 75%
    17:00 +16°C° 0 mm 5 mps 742 mmHg 78%
    18:00 +15°C° 0 mm 5 mps 742 mmHg 82%
    19:00 +14°C° 0.1 mm 5 mps 742 mmHg 85%
    20:00 +14°C° 0.1 mm 5 mps 742 mmHg 87%
    21:00 +13°C° 0.1 mm 5 mps 743 mmHg 90%
    22:00 +13°C° 0.4 mm 5 mps 742 mmHg 91%
    23:00 +13°C° 0.4 mm 5 mps 742 mmHg 92%

    Day after tomorrow, 25 September, Wednesday

    Time Temperature Precipitation Wind Pressure Humidity
    00:00 +13°C° 0.4 mm 5 mps 741 mmHg 92%
    01:00 +14°C° 0.5 mm 5 mps 741 mmHg 92%
    02:00 +14°C° 0.5 mm 5 mps 740 mmHg 92%
    03:00 +14°C° 0.5 mm 5 mps 740 mmHg 92%
    04:00 +14°C° 0.1 mm 4 mps 739 mmHg 93%
    05:00 +14°C° 0.1 mm 4 mps 739 mmHg 94%
    06:00 +14°C° 0.1 mm 3 mps 739 mmHg 95%
    07:00 +14°C° 0.1 mm 4 mps 739 mmHg 94%
    08:00 +15°C° 0.1 mm 4 mps 740 mmHg 93%
    09:00 +15°C° 0.1 mm 4 mps 740 mmHg 91%
    10:00 +16°C° 0.3 mm 5 mps 741 mmHg 88%
    11:00 +16°C° 0.3 mm 6 mps 741 mmHg 86%
    12:00 +17°C° 0.3 mm 7 mps 742 mmHg 83%
    13:00 +17°C° 0.1 mm 6 mps 742 mmHg 79%
    14:00 +19°C° 0.1 mm 6 mps 743 mmHg 76%
    15:00 +19°C° 0.1 mm 5 mps 743 mmHg 72%
    16:00 +17°C° 0.1 mm 5 mps 743 mmHg 77%
    17:00 +16°C° 0.1 mm 5 mps 744 mmHg 82%
    18:00 +15°C° 0.1 mm 4 mps 744 mmHg 87%
    19:00 +15°C° 0 mm 4 mps 745 mmHg 89%
    20:00 +14°C° 0 mm 4 mps 745 mmHg 91%
    21:00 +13°C° 0 mm 4 mps 745 mmHg 92%
    22:00 +13°C° 0 mm 4 mps 745 mmHg 93%
    23:00 +13°C° 0 mm 4 mps 745 mmHg 94%

    26 September, Thursday

    Time Temperature Precipitation Wind Pressure Humidity
    00:00 +13°C° 0 mm 4 mps 745 mmHg 95%
    01:00 +14°C° 0 mm 4 mps 745 mmHg 95%
    02:00 +15°C° 0 mm 5 mps 745 mmHg 95%
    03:00 +15°C° 0 mm 5 mps 745 mmHg 95%
    04:00 +16°C° 0.5 mm 5 mps 745 mmHg 94%
    05:00 +16°C° 0.5 mm 6 mps 745 mmHg 93%
    06:00 +16°C° 0.5 mm 6 mps 744 mmHg 93%
    07:00 +16°C° 0.3 mm 6 mps 745 mmHg 92%
    08:00 +16°C° 0.3 mm 6 mps 745 mmHg 92%
    09:00 +16°C° 0.3 mm 7 mps 745 mmHg 92%
    10:00 +16°C° 0.3 mm 6 mps 746 mmHg 89%
    11:00 +16°C° 0.3 mm 6 mps 746 mmHg 87%
    12:00 +16°C° 0.3 mm 5 mps 746 mmHg 84%
    13:00 +16°C° 0.2 mm 6 mps 746 mmHg 80%
    14:00 +17°C° 0.2 mm 6 mps 746 mmHg 76%
    15:00 +17°C° 0.2 mm 6 mps 746 mmHg 72%
    16:00 +16°C° 0 mm 5 mps 746 mmHg 75%
    17:00 +15°C° 0 mm 4 mps 746 mmHg 78%
    18:00 +13°C° 0 mm 4 mps 746 mmHg 82%
    19:00 +13°C° 0 mm 4 mps 747 mmHg 84%
    20:00 +13°C° 0 mm 4 mps 747 mmHg 86%
    21:00 +12°C° 0 mm 4 mps 747 mmHg 88%
    22:00 +12°C° 0 mm 4 mps 747 mmHg 88%
    23:00 +11°C° 0 mm 4 mps 747 mmHg 88%

    27 September, Friday

    Time Temperature Precipitation Wind Pressure Humidity
    00:00 +11°C° 0 mm 4 mps 747 mmHg 89%
    01:00 +10°C° 0 mm 5 mps 747 mmHg 89%
    02:00 +10°C° 0 mm 5 mps 747 mmHg 89%
    03:00 +10°C° 0 mm 5 mps 747 mmHg 88%
    04:00 +10°C° 0 mm 5 mps 747 mmHg 88%
    05:00 +10°C° 0 mm 5 mps 747 mmHg 87%
    06:00 +10°C° 0 mm 5 mps 747 mmHg 86%
    07:00 +11°C° 0 mm 6 mps 747 mmHg 83%
    08:00 +12°C° 0 mm 7 mps 747 mmHg 80%
    09:00 +14°C° 0 mm 7 mps 747 mmHg 76%
    10:00 +14°C° 0.2 mm 7 mps 747 mmHg 79%
    11:00 +14°C° 0.2 mm 7 mps 747 mmHg 81%
    12:00 +14°C° 0.2 mm 7 mps 747 mmHg 83%
    13:00 +14°C° 0.3 mm 7 mps 747 mmHg 79%
    14:00 +15°C° 0.3 mm 8 mps 747 mmHg 75%
    15:00 +16°C° 0.3 mm 8 mps 747 mmHg 71%
    16:00 +15°C° 0.2 mm 7 mps 747 mmHg 75%
    17:00 +14°C° 0.2 mm 7 mps 747 mmHg 78%
    18:00 +13°C° 0.2 mm 6 mps 747 mmHg 81%
    19:00 +11°C° 0 mm 6 mps 747 mmHg 83%
    20:00 +11°C° 0 mm 6 mps 748 mmHg 84%
    21:00 +10°C° 0 mm 6 mps 748 mmHg 86%
    22:00 +10°C° 0 mm 6 mps 748 mmHg 87%
    23:00 +10°C° 0 mm 6 mps 748 mmHg 87%

    28 September, Saturday

    Time Temperature Precipitation Wind Pressure Humidity
    00:00 +10°C° 0 mm 6 mps 748 mmHg 88%
    01:00 +10°C° 0 mm 6 mps 748 mmHg 88%
    02:00 +10°C° 0 mm 6 mps 748 mmHg 88%
    03:00 +10°C° 0 mm 6 mps 748 mmHg 87%
    04:00 +10°C° 0.1 mm 6 mps 748 mmHg 89%
    05:00 +10°C° 0.1 mm 6 mps 749 mmHg 90%
    06:00 +10°C° 0.1 mm 6 mps 749 mmHg 91%
    07:00 +11°C° 0 mm 7 mps 749 mmHg 87%
    08:00 +12°C° 0 mm 7 mps 749 mmHg 83%
    09:00 +13°C° 0 mm 8 mps 749 mmHg 79%
    10:00 +13°C° 0.1 mm 8 mps 749 mmHg 77%
    11:00 +15°C° 0.1 mm 8 mps 749 mmHg 75%
    12:00 +15°C° 0.1 mm 8 mps 749 mmHg 73%
    13:00 +15°C° 0.1 mm 8 mps 749 mmHg 73%
    14:00 +15°C° 0.1 mm 7 mps 749 mmHg 74%
    15:00 +15°C° 0.1 mm 7 mps 748 mmHg 74%
    16:00 +14°C° 0.1 mm 6 mps 748 mmHg 76%
    17:00 +14°C° 0.1 mm 6 mps 748 mmHg 79%
    18:00 +13°C° 0.1 mm 6 mps 748 mmHg 81%
    19:00 +13°C° 0 mm 5 mps 748 mmHg 81%
    20:00 +13°C° 0 mm 5 mps 748 mmHg 82%
    21:00 +12°C° 0 mm 5 mps 748 mmHg 83%
    22:00 +12°C° 0.1 mm 5 mps 748 mmHg 85%
    23:00 +12°C° 0.1 mm 5 mps 747 mmHg 87%
    Show more